Theta_e
317 317 315 315 315 317 319 320 318 317 316 316 315 316 315 314 315 315 314 313 311 309 303 301 299 298 297 296 294 292 291 291 291 290 290 290 289 289 288 288 288 288 287 287
316 315 313 313 313 314 315 317 317 320 319 315 313 313 314 315 315 315 314 313 311 306 302 300 298 296 297 295 292 291 291 290 290 290 289 289 288 288 288 287 287 287 287 286
317 312 313 316 314 315 315 316 317 319 318 316 317 315 314 315 314 314 313 312 311 305 302 300 298 298 295 293 291 290 290 289 289 289 288 287 287 287 287 287 286 286 285 285
316 315 317 313 311 312 313 313 315 315 316 316 316 316 316 315 315 313 312 311 310 306 302 300 298 296 294 291 290 290 289 289 288 288 287 286 287 286 286 286 285 285 285 284
315 316 313 310 310 311 314 314 313 313 312 312 314 313 312 310 310 312 311 310 307 303 300 297 295 293 291 290 289 289 288 288 287 286 286 285 285 285 285 285 285 284 284 283
311 313 311 309 308 310 312 313 312 312 313 313 313 313 313 309 310 310 308 306 302 299 297 295 293 292 290 290 289 288 287 286 286 285 285 284 284 284 284 284 283 283 283 282
313 313 310 308 308 310 311 311 312 314 313 314 315 313 310 308 309 306 303 300 298 297 295 293 291 291 290 289 287 286 286 285 284 284 283 283 283 284 283 283 283 282 281 281
311 311 310 309 308 309 311 312 313 313 314 313 309 308 308 307 304 301 300 297 296 294 293 291 290 290 289 287 285 285 285 284 283 283 282 283 282 282 282 281 281 280 279 279
310 310 310 310 310 313 313 312 311 311 311 309 307 306 305 302 300 298 296 295 294 292 290 289 289 289 288 285 285 284 283 283 282 282 281 281 281 281 281 280 279 278 278 277
310 310 309 311 311 311 309 310 310 310 308 306 305 303 301 299 298 296 295 294 292 290 289 288 288 287 285 284 284 282 280 281 281 280 281 280 281 280 280 279 278 277 276 276
309 308 308 308 309 311 309 307 308 308 307 305 303 300 299 297 296 295 294 292 291 289 288 286 285 284 283 283 283 281 280 281 280 281 280 280 280 280 279 278 277 276 276 275
308 308 308 306 310 310 308 306 306 305 304 302 300 299 298 297 295 294 292 291 290 288 287 286 284 283 282 282 282 281 281 281 279 280 280 280 280 279 279 278 277 277 276 275
307 307 310 311 308 308 308 307 305 304 302 301 299 298 297 295 293 292 291 290 289 287 286 284 283 282 281 280 279 280 280 279 280 280 280 279 279 278 278 278 277 277 277 276
308 308 308 307 307 306 308 307 304 303 301 300 298 296 295 292 291 290 289 288 287 285 284 283 281 280 279 278 277 278 278 277 279 279 279 278 278 278 277 277 277 277 276 276
305 307 306 304 304 304 303 302 302 300 299 298 296 294 290 289 286 283 282 283 282 281 279 279 279 277 276 276 276 277 278 278 278 278 278 277 277 277 277 277 276 276 276 275
306 305 304 303 303 302 301 301 301 298 296 295 294 291 288 285 282 280 280 280 279 277 276 276 276 275 275 276 276 276 276 276 276 278 278 278 278 277 277 276 276 276 275 275
307 305 304 303 303 303 302 300 298 297 296 295 293 289 287 285 281 279 278 278 279 276 275 275 276 275 274 275 277 279 279 278 276 277 278 277 277 276 276 276 275 275 275 274
306 304 304 303 302 301 300 299 298 297 295 293 289 286 284 281 280 278 277 279 277 276 276 276 275 274 274 275 276 278 278 278 277 277 277 277 276 275 276 275 275 275 274 273
304 303 303 302 301 301 300 299 297 294 289 286 285 283 281 281 278 278 278 277 276 276 277 276 275 274 275 275 276 277 277 277 277 277 276 276 275 276 275 275 274 274 273 273
303 303 303 302 301 300 298 294 289 287 285 284 283 282 281 279 278 277 278 277 278 278 277 276 275 276 277 276 275 276 277 276 276 276 276 275 275 275 274 275 274 274 273 273
304 302 300 298 294 292 290 287 285 284 283 282 282 282 281 279 278 277 277 279 279 279 278 276 276 277 277 276 274 275 276 276 276 276 276 275 275 275 275 274 274 273 273 272
296 293 290 290 289 288 287 286 284 283 282 282 282 281 280 279 277 278 279 281 280 278 277 276 276 277 277 276 275 276 276 275 275 275 275 275 275 274 274 273 273 273 272 272
291 290 289 288 288 287 286 284 283 282 282 281 280 280 280 279 278 279 280 280 279 277 277 277 277 276 275 274 275 275 275 275 275 275 275 274 274 274 273 273 272 272 271 271
290 289 289 287 286 285 284 283 283 282 282 280 280 280 282 281 280 281 282 280 279 277 278 278 277 276 275 273 273 275 275 275 275 275 274 274 273 272 272 271 270 269 269 268
289 288 286 287 287 288 285 284 283 282 281 282 280 280 282 282 282 281 281 279 278 277 277 276 275 274 273 273 274 275 275 275 274 274 273 272 272 270 270 269 268 267 266 266
289 289 289 290 291 287 286 285 285 283 284 282 281 281 282 282 282 281 280 279 277 277 277 276 275 274 273 273 274 275 275 275 274 273 272 270 269 268 268 267 266 265 264 263
291 291 291 291 289 288 287 288 287 285 285 283 282 281 281 282 281 281 280 278 277 276 276 276 275 274 274 274 275 275 274 274 272 271 270 268 268 267 266 265 264 263 262 261
Wind_Speed
19 27 27 22 18 17 21 20 20 20 22 25 10 8 10 8 6 12 14 17 18 16 13 20 17 16 14 12 10 7 6 5 4 2 1 2 4 6 7 8 9 10 12 8
11 17 23 25 21 20 24 23 22 23 26 19 14 15 8 6 12 16 17 18 18 19 20 21 20 18 16 14 10 8 7 6 4 2 1 2 4 6 7 9 9 10 10 10
6 18 18 12 18 21 22 23 19 20 21 21 20 17 14 15 17 21 17 20 20 21 19 21 21 20 16 13 9 8 7 5 3 1 1 3 4 6 8 8 10 11 12 13
10 13 12 6 14 19 21 21 18 18 20 23 20 18 8 6 12 13 10 18 18 19 24 23 22 20 17 14 11 9 7 5 4 1 2 3 4 6 8 9 10 11 12 13
3 5 9 18 14 12 13 15 15 11 16 17 14 3 2 5 7 8 12 16 19 26 26 24 20 18 15 12 11 9 6 4 3 2 2 3 6 7 7 10 11 11 12 14
7 7 8 14 17 13 10 7 11 17 15 13 4 8 4 5 8 13 17 25 26 28 26 23 20 17 16 14 12 9 6 4 3 2 2 4 5 6 8 10 11 12 13 15
14 9 8 17 20 14 17 13 9 9 12 8 8 5 11 10 13 18 24 29 29 26 23 20 19 17 15 13 11 8 6 4 3 3 3 4 5 7 9 9 10 12 13 15
6 7 10 11 14 16 12 11 7 6 5 9 10 12 13 14 17 19 19 26 26 23 21 19 18 17 16 13 10 8 7 5 5 4 3 4 5 7 8 10 11 12 14 14
10 7 9 11 12 8 10 3 3 2 9 11 13 14 15 16 17 17 21 21 22 21 21 18 17 16 15 14 11 10 8 6 5 4 3 5 6 7 7 8 9 12 13 13
8 14 21 15 10 3 7 10 4 2 11 11 14 15 15 14 14 14 19 20 21 21 19 16 14 13 15 12 12 10 9 7 5 4 4 4 4 4 5 6 6 10 11 13
9 9 11 11 26 10 11 5 4 5 10 12 14 14 15 15 15 15 19 20 21 19 19 17 15 14 13 12 12 11 9 7 4 4 3 4 4 3 3 4 7 4 7 10
6 11 8 13 9 5 4 5 5 8 12 13 15 15 15 14 16 19 18 20 19 20 19 18 16 14 12 10 9 11 9 6 5 3 2 3 4 5 4 6 8 6 5 8
8 19 14 6 4 2 7 7 2 5 12 15 15 15 15 12 16 19 18 18 18 19 19 18 16 14 11 10 9 7 8 5 5 3 2 4 5 5 8 8 8 8 7 10
10 8 4 6 3 2 5 8 13 14 15 14 16 19 18 15 20 17 14 19 21 20 18 19 20 18 13 11 10 11 7 5 3 2 2 2 3 5 7 9 10 11 11 12
6 2 5 10 8 8 8 9 11 12 12 12 18 17 20 14 15 17 22 25 25 21 18 19 18 14 12 10 10 7 5 5 3 2 2 2 4 5 7 9 10 12 13 12
6 10 10 10 11 10 11 14 13 12 12 12 11 18 20 19 20 19 19 21 20 13 15 16 15 13 12 13 9 6 7 2 3 2 2 2 4 6 8 9 11 12 13 13
10 10 7 8 10 12 15 11 10 11 12 12 15 21 21 20 18 16 16 17 15 18 18 18 15 13 12 12 9 7 7 7 2 3 3 3 5 6 9 10 11 12 13 14
10 11 8 10 11 11 11 12 11 12 11 18 22 22 20 19 15 18 19 17 16 15 13 13 13 14 11 8 9 4 5 4 3 2 2 4 4 8 10 10 12 13 14 14
10 6 10 12 11 11 10 11 13 16 20 24 23 19 20 17 20 19 18 17 15 13 13 14 11 11 9 9 7 6 6 4 4 4 2 4 6 8 8 12 12 13 14 14
10 12 12 13 17 13 12 18 21 19 20 24 22 20 17 18 19 19 17 14 14 12 17 14 14 12 11 10 10 6 7 5 5 4 4 4 7 8 11 12 13 13 14 14
8 13 13 13 11 20 23 22 22 18 18 22 20 17 18 18 19 19 15 11 11 10 15 15 13 11 11 10 8 6 6 5 5 5 5 7 8 10 11 13 14 14 15 15
9 11 13 14 14 16 20 20 21 20 19 18 19 20 20 17 17 16 14 6 19 16 14 13 12 11 12 13 8 7 6 7 6 5 7 8 9 11 13 14 16 16 15 16
9 13 15 14 14 16 18 18 18 18 18 18 20 19 17 15 16 14 8 9 14 16 13 12 15 14 11 9 7 8 8 7 7 8 8 9 10 12 14 15 15 16 16 15
13 14 15 19 20 17 11 13 15 15 16 16 17 18 15 14 12 11 9 16 16 15 13 12 14 14 11 9 9 9 7 8 8 9 9 8 10 13 13 14 14 15 15 16
15 16 17 16 11 9 16 16 16 15 15 12 13 16 11 11 11 13 11 15 14 14 11 10 11 10 9 9 10 9 9 8 8 7 8 10 9 13 13 14 15 14 17 16
15 12 14 13 13 16 16 16 12 13 14 13 11 12 11 9 9 14 14 13 13 13 12 16 12 10 8 9 10 9 8 7 6 5 5 8 11 13 13 14 14 14 15 16
14 16 13 13 13 14 14 12 14 13 13 15 13 14 13 11 12 11 13 13 13 10 10 12 11 11 9 10 9 7 5 5 5 8 9 10 9 10 12 12 13 15 15 15
Wind_Direction
265 267 277 284 281 260 264 265 258 258 251 262 266 260 166 154 183 183 189 183 170 150 135 135 131 140 155 170 172 165 154 152 135 131 336 347 350 345 343 346 345 342 344 1
246 257 272 278 266 268 264 264 259 278 284 270 259 262 225 206 243 245 228 182 169 140 149 156 159 165 175 175 171 168 163 149 146 146 13 2 344 348 349 350 347 344 351 2
240 250 264 269 262 260 260 261 256 262 259 273 273 265 238 216 222 258 191 174 164 142 152 166 167 169 163 167 162 171 160 154 150 109 20 6 353 355 356 349 344 349 358 2
268 250 239 245 257 266 271 266 254 259 265 269 272 275 257 304 273 239 171 150 149 144 152 161 154 148 154 160 163 165 156 158 134 81 10 2 1 5 350 351 350 356 348 360
229 254 295 290 275 279 304 301 279 288 292 286 274 239 228 317 70 93 123 126 139 136 137 135 139 136 153 160 158 157 155 147 109 87 18 3 18 357 355 352 351 354 359 357
225 250 253 251 253 245 150 276 254 270 275 268 228 223 162 146 124 109 121 127 125 127 130 137 143 156 160 164 156 148 150 131 124 97 37 29 10 353 5 357 0 357 359 356
220 235 261 263 260 254 274 274 283 329 314 263 240 161 119 137 113 117 119 120 124 127 134 140 149 160 155 155 138 143 144 140 127 74 51 34 9 11 13 3 357 5 1 355
232 232 255 236 272 263 268 253 315 314 329 79 98 106 120 116 113 115 119 122 127 132 137 144 156 158 158 142 144 146 147 143 115 81 49 34 16 27 15 11 7 6 2 358
243 250 236 270 270 333 358 345 4 331 89 114 123 125 121 117 120 120 124 132 138 136 139 151 160 164 149 148 151 148 137 129 106 92 58 44 30 31 15 16 16 5 357 358
221 254 280 305 277 110 10 316 273 249 125 137 130 129 123 125 128 129 144 142 142 144 145 147 149 145 144 152 152 140 138 124 111 100 67 46 30 27 7 16 14 357 355 353
287 268 275 285 291 147 169 240 273 130 151 144 136 136 137 139 140 149 146 144 147 152 144 147 146 140 149 155 154 140 136 137 122 122 68 32 22 3 17 7 352 341 340 336
274 275 216 247 261 30 143 169 170 164 151 145 137 143 146 146 152 147 145 149 154 147 148 151 150 148 146 144 150 144 149 147 128 114 74 44 12 15 352 12 349 325 320 333
227 236 214 152 129 234 214 148 335 208 146 147 149 153 149 145 142 138 147 150 150 145 148 152 148 141 135 135 133 127 118 144 148 115 58 31 11 357 347 341 346 345 340 342
176 157 122 165 151 212 203 173 167 200 186 146 140 136 137 122 118 119 123 142 137 130 138 145 139 128 136 144 143 136 142 134 119 106 85 21 335 337 334 334 335 338 338 339
280 139 100 122 126 120 141 133 140 160 151 139 135 128 120 117 108 106 117 126 128 130 127 135 141 150 159 143 131 139 151 141 167 176 191 286 287 329 329 331 333 330 333 336
197 141 140 135 130 133 155 175 175 139 133 138 132 125 126 120 115 111 129 139 136 140 150 153 155 168 164 151 157 147 158 160 175 246 246 280 321 330 329 332 329 330 335 342
151 166 158 151 160 175 191 168 148 149 149 145 137 131 139 137 126 125 143 145 156 162 166 165 167 173 169 162 184 199 189 184 179 219 278 324 318 339 320 320 326 327 329 334
182 173 178 170 176 181 173 161 150 148 147 139 132 136 135 143 150 152 157 148 153 154 164 172 184 178 175 178 183 226 189 199 217 253 277 305 330 312 301 325 321 325 327 330
144 183 179 170 165 171 154 139 134 128 121 126 129 135 143 148 150 152 153 145 149 157 174 183 179 174 181 190 200 195 202 202 239 253 268 299 320 311 319 314 316 319 323 325
164 190 177 156 162 136 123 111 112 117 128 131 130 135 135 141 146 148 154 164 181 188 181 182 179 187 194 196 209 211 200 207 238 257 275 277 287 304 309 305 315 315 318 319
174 114 105 98 89 96 107 118 122 127 135 140 143 142 140 144 152 154 159 178 179 165 167 175 181 191 193 202 201 209 194 211 241 259 279 292 298 302 308 314 316 316 315 315
79 92 98 101 102 101 114 123 130 135 139 138 139 140 140 145 155 172 186 213 167 171 168 178 191 206 198 185 192 211 207 226 246 269 286 291 299 305 308 312 311 312 310 308
95 103 107 112 117 118 115 123 134 142 144 145 148 150 154 159 169 174 183 188 165 175 180 192 201 204 199 182 201 219 224 237 253 266 277 290 298 310 313 314 319 321 324 327
110 111 110 114 117 117 120 129 132 137 142 147 155 160 153 154 173 195 198 179 181 178 184 200 192 192 201 212 211 235 236 248 261 272 282 298 314 313 321 326 331 332 329 328
121 121 124 129 131 130 133 136 130 134 140 140 153 165 165 172 171 183 160 163 173 172 176 180 186 192 202 206 221 235 241 250 271 277 292 298 309 323 319 321 321 322 323 323
136 141 148 156 137 146 147 154 148 153 151 145 157 170 172 170 154 159 153 162 179 182 191 191 197 207 210 213 228 241 246 259 269 288 291 304 308 310 315 316 317 318 316 315
129 136 136 124 136 143 153 160 149 160 166 159 161 174 178 172 162 172 169 171 176 185 204 187 195 203 200 222 231 225 242 249 275 284 298 309 302 304 309 309 306 306 311 313